Find Starlink 31645

NORAD ID: 59264 Int'l Des: 2024-050 Owner: SPXS Country: US Constellation: starlink operational
LEOCIRCULAR

Live Position

Loading 3D Globe...

About Starlink 31645

Description loading...

Upcoming Passes

Passes for default location (London). Set your location on the main map for personalized predictions.

Altitude History

Loading altitude history...

Two-Line Element Set

1 59264U 24050L 26132.67692751 .00006974 00000-0 24737-3 0 9996
2 59264 53.1586 243.8950 0000843 80.4462 279.6634 15.30200284120348
Epoch: May 12, 2026 • Age: 16 hours

Current Status

Altitude 475.8 km
Velocity 7.63 km/s
Sub-Earth Point 24.70°N, 91.09°W
Launch Date Mar 19, 2024
Age 2.1 years
Type internet

Technical Details

Classification Payload
Mass 730.00 kg
Dry Mass 700.00 kg
Total Mass 730.00 kg
Length 0.30 m
Diameter 4.10 m
Span 29.00 m
Shape Box + pan
Manufacturer SPXS
Bus Type Starlink V2M
Phase Status In Orbit
Owner/State SPXS/US

Most Searched